Time,TemperatureF,DewpointF,PressureIn,WindDirection,WindDirectionDegrees,WindSpeedMPH,WindSpeedGustMPH,Humidity,HourlyPrecipIn,Conditions,Clouds,dailyrainin,SoftwareType,DateUTC
2013-01-01 00:00:00,19.6,12.4,29.25,West,270,3.0,9.0,73,0.00,,,0.00,meteohub,2013-01-01 05:00:00,
2013-01-01 00:01:00,19.6,12.4,29.25,WNW,293,4.0,5.0,73,0.00,,,0.00,meteohub,2013-01-01 05:01:00,
2013-01-01 00:06:00,19.6,12.4,29.25,WSW,248,2.0,5.0,73,0.00,,,0.00,meteohub,2013-01-01 05:06:00,
2013-01-01 00:11:00,19.6,12.4,29.25,North,0,4.0,4.0,73,0.00,,,0.00,meteohub,2013-01-01 05:11:00,
2013-01-01 00:16:00,19.6,12.0,29.25,SW,225,4.0,9.0,72,0.00,,,0.00,meteohub,2013-01-01 05:16:00,
2013-01-01 00:21:00,19.6,12.0,29.25,North,0,4.0,9.0,72,0.00,,,0.00,meteohub,2013-01-01 05:21:00,
2013-01-01 00:26:00,19.6,11.7,29.25,West,270,5.0,9.0,71,0.00,,,0.00,meteohub,2013-01-01 05:26:00,
2013-01-01 00:31:00,19.6,11.5,29.25,ENE,68,3.0,9.0,70,0.00,,,0.00,meteohub,2013-01-01 05:31:00,
2013-01-01 00:36:00,19.6,11.5,29.25,WNW,293,3.0,9.0,70,0.00,,,0.00,meteohub,2013-01-01 05:36:00,
2013-01-01 00:41:00,19.6,11.5,29.25,NW,315,3.0,8.0,70,0.00,,,0.00,meteohub,2013-01-01 05:41:00,
2013-01-01 00:46:00,19.6,11.5,29.25,NNE,23,5.0,5.0,70,0.00,,,0.00,meteohub,2013-01-01 05:46:00,
2013-01-01 00:51:00,19.6,11.1,29.25,ESE,113,6.0,6.0,69,0.00,,,0.00,meteohub,2013-01-01 05:51:00,
2013-01-01 00:56:00,19.6,11.1,29.28,SE,135,4.0,6.0,69,0.00,,,0.00,meteohub,2013-01-01 05:56:00,
2013-01-01 01:01:00,19.6,11.1,29.28,WNW,293,6.0,6.0,69,0.00,,,0.00,meteohub,2013-01-01 06:01:00,
2013-01-01 01:07:00,19.6,11.1,29.28,North,0,2.0,6.0,69,0.00,,,0.00,meteohub,2013-01-01 06:07:00,
2013-01-01 01:12:00,19.6,11.1,29.28,NW,315,5.0,6.0,69,0.00,,,0.00,meteohub,2013-01-01 06:12:00,
2013-01-01 01:17:00,19.6,11.1,29.28,NE,45,2.0,6.0,69,0.00,,,0.00,meteohub,2013-01-01 06:17:00,
2013-01-01 01:22:00,19.6,11.1,29.28,North,0,3.0,6.0,69,0.00,,,0.00,meteohub,2013-01-01 06:22:00,
2013-01-01 01:27:00,19.6,11.1,29.28,WNW,293,4.0,7.0,69,0.00,,,0.00,meteohub,2013-01-01 06:27:00,
2013-01-01 01:32:00,19.6,11.1,29.28,WNW,293,2.0,7.0,69,0.00,,,0.00,meteohub,2013-01-01 06:32:00,
2013-01-01 01:37:00,19.6,11.5,29.29,North,0,2.0,6.0,70,0.00,,,0.00,meteohub,2013-01-01 06:37:00,
2013-01-01 01:42:00,19.6,11.5,29.29,WNW,293,2.0,6.0,70,0.00,,,0.00,meteohub,2013-01-01 06:42:00,
2013-01-01 01:47:00,19.6,11.5,29.29,NW,315,6.0,6.0,70,0.00,,,0.00,meteohub,2013-01-01 06:47:00,
2013-01-01 01:52:00,19.6,11.7,29.29,NE,45,3.0,6.0,71,0.00,,,0.00,meteohub,2013-01-01 06:52:00,
2013-01-01 01:57:00,19.6,11.7,29.29,WNW,293,4.0,6.0,71,0.00,,,0.00,meteohub,2013-01-01 06:57:00,
2013-01-01 02:02:00,19.6,11.7,29.29,WNW,293,4.0,6.0,71,0.00,,,0.00,meteohub,2013-01-01 07:02:00,
2013-01-01 02:07:00,19.6,12.0,29.29,NE,45,2.0,4.0,72,0.00,,,0.00,meteohub,2013-01-01 07:07:00,
2013-01-01 02:12:00,19.6,12.0,29.29,West,270,4.0,6.0,72,0.00,,,0.00,meteohub,2013-01-01 07:12:00,
2013-01-01 02:17:00,19.6,12.0,29.29,West,270,2.0,6.0,72,0.00,,,0.00,meteohub,2013-01-01 07:17:00,
2013-01-01 02:22:00,19.6,12.4,29.29,SW,225,2.0,4.0,73,0.00,,,0.00,meteohub,2013-01-01 07:22:00,
2013-01-01 02:27:00,19.6,12.4,29.29,NNE,23,2.0,5.0,73,0.00,,,0.00,meteohub,2013-01-01 07:27:00,
2013-01-01 02:32:00,19.6,12.4,29.29,NNW,338,2.0,5.0,73,0.00,,,0.00,meteohub,2013-01-01 07:32:00,
2013-01-01 02:37:00,19.6,12.4,29.29,South,180,0.0,4.0,73,0.00,,,0.00,meteohub,2013-01-01 07:37:00,
2013-01-01 02:42:00,19.6,12.4,29.29,NNW,338,2.0,6.0,73,0.00,,,0.00,meteohub,2013-01-01 07:42:00,
2013-01-01 02:47:00,19.6,12.4,29.29,WSW,248,4.0,6.0,73,0.00,,,0.00,meteohub,2013-01-01 07:47:00,
2013-01-01 02:52:00,19.6,12.4,29.29,SW,225,3.0,6.0,73,0.00,,,0.00,meteohub,2013-01-01 07:52:00,
2013-01-01 02:57:00,19.6,12.4,29.31,NNW,338,4.0,4.0,73,0.00,,,0.00,meteohub,2013-01-01 07:57:00,
2013-01-01 03:02:00,19.6,12.4,29.31,NW,315,0.0,4.0,73,0.00,,,0.00,meteohub,2013-01-01 08:02:00,
2013-01-01 03:07:00,19.6,12.0,29.31,West,270,1.0,4.0,72,0.00,,,0.00,meteohub,2013-01-01 08:07:00,
2013-01-01 03:12:00,19.8,12.2,29.31,WNW,293,0.0,4.0,72,0.00,,,0.00,meteohub,2013-01-01 08:12:00,
2013-01-01 03:17:00,19.8,12.2,29.31,WNW,293,2.0,3.0,72,0.00,,,0.00,meteohub,2013-01-01 08:17:00,
2013-01-01 03:22:00,19.6,12.4,29.31,WSW,248,2.0,2.0,73,0.00,,,0.00,meteohub,2013-01-01 08:22:00,
2013-01-01 03:27:00,19.6,12.4,29.31,North,0,0.0,4.0,73,0.00,,,0.00,meteohub,2013-01-01 08:27:00,
2013-01-01 03:32:00,19.6,12.4,29.31,WSW,248,2.0,4.0,73,0.00,,,0.00,meteohub,2013-01-01 08:32:00,
2013-01-01 03:37:00,19.6,12.4,29.31,North,0,0.0,4.0,73,0.00,,,0.00,meteohub,2013-01-01 08:37:00,
2013-01-01 03:42:00,19.6,12.4,29.31,South,180,0.0,4.0,73,0.00,,,0.00,meteohub,2013-01-01 08:42:00,
2013-01-01 03:47:00,19.6,12.4,29.31,NW,315,2.0,4.0,73,0.00,,,0.00,meteohub,2013-01-01 08:47:00,
2013-01-01 03:52:00,19.6,12.4,29.31,NW,315,3.0,4.0,73,0.00,,,0.00,meteohub,2013-01-01 08:52:00,
2013-01-01 03:57:00,19.6,12.4,29.31,NNE,23,2.0,4.0,73,0.00,,,0.00,meteohub,2013-01-01 08:57:00,
2013-01-01 04:02:00,19.6,12.0,29.31,WSW,248,4.0,4.0,72,0.00,,,0.00,meteohub,2013-01-01 09:02:00,
2013-01-01 04:07:00,19.6,12.0,29.31,WNW,293,0.0,4.0,72,0.00,,,0.00,meteohub,2013-01-01 09:07:00,
2013-01-01 04:12:00,19.6,12.0,29.31,SW,225,0.0,4.0,72,0.00,,,0.00,meteohub,2013-01-01 09:12:00,
2013-01-01 04:17:00,19.6,12.0,29.31,SSE,158,2.0,4.0,72,0.00,,,0.00,meteohub,2013-01-01 09:17:00,
2013-01-01 04:22:00,19.6,11.7,29.31,NW,315,3.0,4.0,71,0.00,,,0.00,meteohub,2013-01-01 09:22:00,
2013-01-01 04:27:00,19.6,11.7,29.31,NW,315,0.0,8.0,71,0.00,,,0.00,meteohub,2013-01-01 09:27:00,
2013-01-01 04:32:00,19.6,11.7,29.31,WNW,293,3.0,8.0,71,0.00,,,0.00,meteohub,2013-01-01 09:32:00,
2013-01-01 04:37:00,19.6,11.7,29.31,WNW,293,3.0,7.0,71,0.00,,,0.00,meteohub,2013-01-01 09:37:00,
2013-01-01 04:42:00,19.6,12.0,29.31,SSE,158,3.0,8.0,72,0.00,,,0.00,meteohub,2013-01-01 09:42:00,
2013-01-01 04:47:00,19.6,12.0,29.31,SSW,203,4.0,8.0,72,0.00,,,0.00,meteohub,2013-01-01 09:47:00,
2013-01-01 04:52:00,19.6,12.0,29.31,WSW,248,3.0,8.0,72,0.00,,,0.00,meteohub,2013-01-01 09:52:00,
2013-01-01 04:57:00,19.6,11.7,29.31,NNW,338,5.0,5.0,71,0.00,,,0.00,meteohub,2013-01-01 09:57:00,
2013-01-01 05:02:00,19.6,11.7,29.31,SSE,158,2.0,5.0,71,0.00,,,0.00,meteohub,2013-01-01 10:02:00,
2013-01-01 05:07:00,19.6,11.7,29.31,NW,315,4.0,5.0,71,0.00,,,0.00,meteohub,2013-01-01 10:07:00,
2013-01-01 05:13:00,19.6,12.0,29.31,NNE,23,6.0,6.0,72,0.00,,,0.00,meteohub,2013-01-01 10:13:00,
2013-01-01 05:18:00,19.6,12.0,29.31,SW,225,3.0,6.0,72,0.00,,,0.00,meteohub,2013-01-01 10:18:00,
2013-01-01 05:23:00,19.6,12.0,29.31,WSW,248,2.0,6.0,72,0.00,,,0.00,meteohub,2013-01-01 10:23:00,
2013-01-01 05:28:00,19.6,12.0,29.31,NNE,23,0.0,6.0,72,0.00,,,0.00,meteohub,2013-01-01 10:28:00,
2013-01-01 05:33:00,19.4,12.2,29.31,NNE,23,0.0,6.0,73,0.00,,,0.00,meteohub,2013-01-01 10:33:00,
2013-01-01 05:38:00,19.2,12.0,29.32,NNE,23,3.0,3.0,73,0.00,,,0.00,meteohub,2013-01-01 10:38:00,
2013-01-01 05:43:00,19.2,12.0,29.32,West,270,2.0,3.0,73,0.00,,,0.00,meteohub,2013-01-01 10:43:00,
2013-01-01 05:48:00,19.2,12.0,29.32,SSW,203,5.0,5.0,73,0.00,,,0.00,meteohub,2013-01-01 10:48:00,
2013-01-01 05:53:00,19.2,12.0,29.32,SSW,203,0.0,5.0,73,0.00,,,0.00,meteohub,2013-01-01 10:53:00,
2013-01-01 05:58:00,19.2,12.0,29.32,North,0,0.0,5.0,73,0.00,,,0.00,meteohub,2013-01-01 10:58:00,
2013-01-01 06:03:00,19.0,11.8,29.32,NE,45,0.0,5.0,73,0.00,,,0.00,meteohub,2013-01-01 11:03:00,
2013-01-01 06:08:00,19.0,11.8,29.32,ESE,113,2.0,0.0,73,0.00,,,0.00,meteohub,2013-01-01 11:08:00,
2013-01-01 06:13:00,18.5,11.7,29.32,NE,45,3.0,4.0,74,0.00,,,0.00,meteohub,2013-01-01 11:13:00,
2013-01-01 06:18:00,18.3,11.5,29.32,NNE,23,3.0,4.0,74,0.00,,,0.00,meteohub,2013-01-01 11:18:00,
2013-01-01 06:23:00,18.3,11.7,29.32,NE,45,0.0,4.0,75,0.00,,,0.00,meteohub,2013-01-01 11:23:00,
2013-01-01 06:28:00,18.1,11.5,29.32,ENE,68,0.0,4.0,75,0.00,,,0.00,meteohub,2013-01-01 11:28:00,
2013-01-01 06:33:00,18.1,11.5,29.33,SSE,158,0.0,4.0,75,0.00,,,0.00,meteohub,2013-01-01 11:33:00,
2013-01-01 06:38:00,18.1,11.5,29.33,ESE,113,0.0,0.0,75,0.00,,,0.00,meteohub,2013-01-01 11:38:00,
2013-01-01 06:43:00,18.1,11.5,29.33,NE,45,0.0,0.0,75,0.00,,,0.00,meteohub,2013-01-01 11:43:00,
2013-01-01 06:48:00,18.1,11.5,29.33,NE,45,0.0,0.0,75,0.00,,,0.00,meteohub,2013-01-01 11:48:00,
2013-01-01 06:53:00,18.1,11.5,29.33,NE,45,4.0,0.0,75,0.00,,,0.00,meteohub,2013-01-01 11:53:00,
2013-01-01 06:58:00,18.1,11.5,29.33,NE,45,2.0,5.0,75,0.00,,,0.00,meteohub,2013-01-01 11:58:00,
2013-01-01 07:03:00,18.0,11.3,29.33,NE,45,5.0,5.0,75,0.00,,,0.00,meteohub,2013-01-01 12:03:00,
2013-01-01 07:08:00,18.1,11.5,29.33,NE,45,0.0,5.0,75,0.00,,,0.00,meteohub,2013-01-01 12:08:00,
2013-01-01 07:13:00,18.1,11.5,29.33,East,90,0.0,5.0,75,0.00,,,0.00,meteohub,2013-01-01 12:13:00,
2013-01-01 07:18:00,18.1,11.5,29.33,ESE,113,0.0,5.0,75,0.00,,,0.00,meteohub,2013-01-01 12:18:00,
2013-01-01 07:23:00,18.0,11.3,29.33,East,90,0.0,3.0,75,0.00,,,0.00,meteohub,2013-01-01 12:23:00,
2013-01-01 07:28:00,18.0,11.3,29.33,ESE,113,0.0,0.0,75,0.00,,,0.00,meteohub,2013-01-01 12:28:00,
2013-01-01 07:33:00,18.0,11.3,29.34,South,180,0.0,0.0,75,0.00,,,0.00,meteohub,2013-01-01 12:33:00,
2013-01-01 07:38:00,18.0,11.3,29.34,SE,135,0.0,0.0,75,0.00,,,0.00,meteohub,2013-01-01 12:38:00,
2013-01-01 07:43:00,18.0,11.3,29.34,East,90,0.0,0.0,75,0.00,,,0.00,meteohub,2013-01-01 12:43:00,
2013-01-01 07:48:00,18.0,11.3,29.34,SSE,158,0.0,0.0,75,0.00,,,0.00,meteohub,2013-01-01 12:48:00,
2013-01-01 07:53:00,18.0,11.3,29.34,ESE,113,0.0,0.0,75,0.00,,,0.00,meteohub,2013-01-01 12:53:00,
2013-01-01 07:58:00,18.0,11.7,29.34,ESE,113,0.0,0.0,76,0.00,,,0.00,meteohub,2013-01-01 12:58:00,
2013-01-01 08:03:00,17.8,11.5,29.34,East,90,0.0,0.0,76,0.00,,,0.00,meteohub,2013-01-01 13:03:00,
2013-01-01 08:08:00,17.8,11.5,29.34,SE,135,0.0,0.0,76,0.00,,,0.00,meteohub,2013-01-01 13:08:00,
2013-01-01 08:14:00,17.8,11.5,29.34,South,180,2.0,0.0,76,0.00,,,0.00,meteohub,2013-01-01 13:14:00,
2013-01-01 08:19:00,17.8,11.5,29.34,SSE,158,2.0,2.0,76,0.00,,,0.00,meteohub,2013-01-01 13:19:00,
2013-01-01 08:24:00,17.8,11.5,29.34,SE,135,0.0,2.0,76,0.00,,,0.00,meteohub,2013-01-01 13:24:00,
2013-01-01 08:28:00,17.6,11.3,29.34,ESE,113,0.0,2.0,76,0.00,,,0.00,meteohub,2013-01-01 13:28:00,
2013-01-01 08:34:00,17.6,11.3,29.35,NE,45,0.0,2.0,76,0.00,,,0.00,meteohub,2013-01-01 13:34:00,
2013-01-01 08:39:00,17.8,11.5,29.35,East,90,0.0,0.0,76,0.00,,,0.00,meteohub,2013-01-01 13:39:00,
2013-01-01 08:44:00,17.6,11.3,29.35,ESE,113,0.0,0.0,76,0.00,,,0.00,meteohub,2013-01-01 13:44:00,
2013-01-01 08:49:00,17.8,11.5,29.35,NE,45,0.0,0.0,76,0.00,,,0.00,meteohub,2013-01-01 13:49:00,
2013-01-01 08:54:00,17.8,11.5,29.35,NNE,23,0.0,0.0,76,0.00,,,0.00,meteohub,2013-01-01 13:54:00,
2013-01-01 08:59:00,17.8,11.5,29.35,SSW,203,0.0,0.0,76,0.00,,,0.00,meteohub,2013-01-01 13:59:00,
2013-01-01 09:04:00,18.0,11.7,29.35,ENE,68,0.0,0.0,76,0.00,,,0.00,meteohub,2013-01-01 14:04:00,
2013-01-01 09:09:00,18.1,11.8,29.35,SSE,158,0.0,0.0,76,0.00,,,0.00,meteohub,2013-01-01 14:09:00,
2013-01-01 09:14:00,18.1,11.8,29.35,SE,135,0.0,2.0,76,0.00,,,0.00,meteohub,2013-01-01 14:14:00,
2013-01-01 09:19:00,18.1,11.8,29.35,ESE,113,0.0,2.0,76,0.00,,,0.00,meteohub,2013-01-01 14:19:00,
2013-01-01 09:24:00,18.1,11.8,29.35,East,90,0.0,2.0,76,0.00,,,0.00,meteohub,2013-01-01 14:24:00,
2013-01-01 09:29:00,18.1,11.8,29.35,ENE,68,0.0,0.0,76,0.00,,,0.00,meteohub,2013-01-01 14:29:00,
2013-01-01 09:34:00,18.1,11.8,29.35,SSE,158,0.0,1.0,76,0.00,,,0.00,meteohub,2013-01-01 14:34:00,
2013-01-01 09:39:00,18.3,12.0,29.35,East,90,0.0,1.0,76,0.00,,,0.00,meteohub,2013-01-01 14:39:00,
2013-01-01 09:44:00,18.3,12.0,29.35,East,90,0.0,1.0,76,0.00,,,0.00,meteohub,2013-01-01 14:44:00,
2013-01-01 09:49:00,18.3,12.0,29.35,ENE,68,0.0,0.0,76,0.00,,,0.00,meteohub,2013-01-01 14:49:00,
2013-01-01 09:54:00,18.3,12.0,29.35,NE,45,2.0,0.0,76,0.00,,,0.00,meteohub,2013-01-01 14:54:00,
2013-01-01 09:59:00,18.5,12.2,29.35,ESE,113,0.0,3.0,76,0.00,,,0.00,meteohub,2013-01-01 14:59:00,
2013-01-01 10:04:00,18.7,12.0,29.35,SE,135,0.0,3.0,75,0.00,,,0.00,meteohub,2013-01-01 15:04:00,
2013-01-01 10:09:00,18.7,12.0,29.35,East,90,0.0,3.0,75,0.00,,,0.00,meteohub,2013-01-01 15:09:00,
2013-01-01 10:14:00,19.0,12.7,29.36,East,90,0.0,2.0,76,0.00,,,0.00,meteohub,2013-01-01 15:14:00,
2013-01-01 10:19:00,19.0,12.7,29.36,ESE,113,0.0,1.0,76,0.00,,,0.00,meteohub,2013-01-01 15:19:00,
2013-01-01 10:24:00,19.2,12.9,29.36,East,90,0.0,1.0,76,0.00,,,0.00,meteohub,2013-01-01 15:24:00,
2013-01-01 10:29:00,19.4,13.1,29.36,ESE,113,0.0,0.0,76,0.00,,,0.00,meteohub,2013-01-01 15:29:00,
2013-01-01 10:34:00,19.6,13.3,29.36,East,90,2.0,2.0,76,0.00,,,0.00,meteohub,2013-01-01 15:34:00,
2013-01-01 10:39:00,19.6,13.3,29.36,WNW,293,2.0,2.0,76,0.00,,,0.00,meteohub,2013-01-01 15:39:00,
2013-01-01 10:44:00,19.6,13.3,29.36,ESE,113,0.0,2.0,76,0.00,,,0.00,meteohub,2013-01-01 15:44:00,
2013-01-01 10:49:00,19.6,13.3,29.36,SE,135,0.0,2.0,76,0.00,,,0.00,meteohub,2013-01-01 15:49:00,
2013-01-01 10:54:00,19.8,13.5,29.36,ESE,113,0.0,2.0,76,0.00,,,0.00,meteohub,2013-01-01 15:54:00,
2013-01-01 10:59:00,20.1,13.8,29.36,NNW,338,0.0,1.0,76,0.00,,,0.00,meteohub,2013-01-01 15:59:00,
2013-01-01 11:04:00,20.3,14.0,29.36,WNW,293,2.0,2.0,76,0.00,,,0.00,meteohub,2013-01-01 16:04:00,
2013-01-01 11:09:00,20.7,14.4,29.36,NNE,23,0.0,5.0,76,0.00,,,0.00,meteohub,2013-01-01 16:09:00,
2013-01-01 11:14:00,21.0,14.7,29.36,SW,225,2.0,5.0,76,0.00,,,0.00,meteohub,2013-01-01 16:14:00,
2013-01-01 11:19:00,21.4,14.7,29.36,NW,315,0.0,5.0,75,0.00,,,0.00,meteohub,2013-01-01 16:19:00,
2013-01-01 11:24:00,21.7,15.1,29.36,South,180,3.0,7.0,75,0.00,,,0.00,meteohub,2013-01-01 16:24:00,
2013-01-01 11:29:00,21.9,14.9,29.36,West,270,5.0,7.0,74,0.00,,,0.00,meteohub,2013-01-01 16:29:00,
2013-01-01 11:34:00,22.1,15.1,29.35,WSW,248,6.0,7.0,74,0.00,,,0.00,meteohub,2013-01-01 16:34:00,
2013-01-01 11:39:00,22.1,14.7,29.35,SW,225,4.0,5.0,73,0.00,,,0.00,meteohub,2013-01-01 16:39:00,
2013-01-01 11:44:00,22.3,14.7,29.35,SW,225,5.0,6.0,72,0.00,,,0.00,meteohub,2013-01-01 16:44:00,
2013-01-01 11:49:00,22.1,14.2,29.35,SW,225,3.0,6.0,71,0.00,,,0.00,meteohub,2013-01-01 16:49:00,
2013-01-01 11:54:00,22.3,14.4,29.34,WNW,293,3.0,6.0,71,0.00,,,0.00,meteohub,2013-01-01 16:54:00,
2013-01-01 11:59:00,22.6,14.7,29.34,ESE,113,3.0,6.0,71,0.00,,,0.00,meteohub,2013-01-01 16:59:00,
2013-01-01 12:04:00,22.5,14.5,29.34,SW,225,2.0,4.0,71,0.00,,,0.00,meteohub,2013-01-01 17:04:00,
2013-01-01 12:09:00,22.6,14.7,29.34,East,90,2.0,5.0,71,0.00,,,0.00,meteohub,2013-01-01 17:09:00,
2013-01-01 12:15:00,22.6,14.7,29.33,WSW,248,2.0,5.0,71,0.00,,,0.00,meteohub,2013-01-01 17:15:00,
2013-01-01 12:20:00,22.5,14.5,29.33,SSE,158,8.0,8.0,71,0.00,,,0.00,meteohub,2013-01-01 17:20:00,
2013-01-01 12:25:00,22.3,14.4,29.33,South,180,5.0,7.0,71,0.00,,,0.00,meteohub,2013-01-01 17:25:00,
2013-01-01 12:30:00,22.3,14.4,29.33,SW,225,2.0,8.0,71,0.00,,,0.00,meteohub,2013-01-01 17:30:00,
2013-01-01 12:35:00,22.5,14.5,29.32,SSW,203,6.0,8.0,71,0.00,,,0.00,meteohub,2013-01-01 17:35:00,
2013-01-01 12:40:00,22.5,14.7,29.32,NW,315,3.0,6.0,72,0.00,,,0.00,meteohub,2013-01-01 17:40:00,
2013-01-01 12:45:00,22.6,14.9,29.32,SSW,203,5.0,6.0,72,0.00,,,0.00,meteohub,2013-01-01 17:45:00,
2013-01-01 12:50:00,22.5,15.1,29.32,SW,225,5.0,6.0,73,0.00,,,0.00,meteohub,2013-01-01 17:50:00,
2013-01-01 12:55:00,22.3,15.3,29.31,SSW,203,3.0,6.0,74,0.00,,,0.00,meteohub,2013-01-01 17:55:00,
2013-01-01 13:01:00,22.3,15.3,29.31,SW,225,4.0,6.0,74,0.00,,,0.00,meteohub,2013-01-01 18:01:00,
2013-01-01 13:06:00,22.1,15.1,29.31,SSW,203,6.0,6.0,74,0.00,,,0.00,meteohub,2013-01-01 18:06:00,
2013-01-01 13:11:00,22.1,15.4,29.31,South,180,3.0,6.0,75,0.00,,,0.00,meteohub,2013-01-01 18:11:00,
2013-01-01 13:16:00,22.1,15.4,29.29,SSE,158,2.0,6.0,75,0.00,,,0.00,meteohub,2013-01-01 18:16:00,
2013-01-01 13:21:00,22.3,15.6,29.29,South,180,3.0,6.0,75,0.00,,,0.00,meteohub,2013-01-01 18:21:00,
2013-01-01 13:26:00,22.3,15.6,29.29,SSW,203,4.0,6.0,75,0.00,,,0.00,meteohub,2013-01-01 18:26:00,
2013-01-01 13:31:00,22.5,15.8,29.29,SW,225,4.0,6.0,75,0.00,,,0.00,meteohub,2013-01-01 18:31:00,
2013-01-01 13:36:00,22.3,15.6,29.28,SSW,203,5.0,6.0,75,0.00,,,0.00,meteohub,2013-01-01 18:36:00,
2013-01-01 13:41:00,22.5,15.8,29.28,SW,225,3.0,8.0,75,0.00,,,0.00,meteohub,2013-01-01 18:41:00,
2013-01-01 13:46:00,22.6,16.0,29.28,SW,225,5.0,8.0,75,0.00,,,0.00,meteohub,2013-01-01 18:46:00,
2013-01-01 13:51:00,22.8,15.8,29.28,WSW,248,3.0,8.0,74,0.00,,,0.00,meteohub,2013-01-01 18:51:00,
2013-01-01 13:56:00,23.0,16.3,29.27,SW,225,3.0,8.0,75,0.00,,,0.00,meteohub,2013-01-01 18:56:00,
2013-01-01 14:01:00,23.0,16.0,29.27,SSE,158,4.0,8.0,74,0.00,,,0.00,meteohub,2013-01-01 19:01:00,
2013-01-01 14:06:00,23.0,15.6,29.27,SSW,203,7.0,9.0,73,0.00,,,0.00,meteohub,2013-01-01 19:06:00,
2013-01-01 14:12:00,23.0,15.6,29.27,SW,225,3.0,9.0,73,0.00,,,0.00,meteohub,2013-01-01 19:12:00,
2013-01-01 14:17:00,23.0,15.6,29.26,SW,225,7.0,8.0,73,0.00,,,0.00,meteohub,2013-01-01 19:17:00,
2013-01-01 14:22:00,23.0,15.6,29.26,WNW,293,3.0,8.0,73,0.00,,,0.00,meteohub,2013-01-01 19:22:00,
2013-01-01 14:27:00,23.2,15.4,29.26,WSW,248,3.0,7.0,72,0.00,,,0.00,meteohub,2013-01-01 19:27:00,
2013-01-01 14:32:00,23.2,15.3,29.26,SW,225,5.0,7.0,71,0.00,,,0.00,meteohub,2013-01-01 19:32:00,
2013-01-01 14:37:00,23.4,15.4,29.26,West,270,4.0,5.0,71,0.00,,,0.00,meteohub,2013-01-01 19:37:00,
2013-01-01 14:42:00,23.2,15.4,29.26,SW,225,4.0,9.0,72,0.00,,,0.00,meteohub,2013-01-01 19:42:00,
2013-01-01 14:47:00,23.0,15.3,29.26,WSW,248,6.0,9.0,72,0.00,,,0.00,meteohub,2013-01-01 19:47:00,
2013-01-01 14:52:00,22.8,15.1,29.26,WSW,248,3.0,9.0,72,0.00,,,0.00,meteohub,2013-01-01 19:52:00,
2013-01-01 14:57:00,22.8,15.1,29.26,WSW,248,5.0,6.0,72,0.00,,,0.00,meteohub,2013-01-01 19:57:00,
2013-01-01 15:02:00,22.8,15.1,29.26,South,180,4.0,6.0,72,0.00,,,0.00,meteohub,2013-01-01 20:02:00,
2013-01-01 15:07:00,22.8,14.9,29.26,SSE,158,0.0,6.0,71,0.00,,,0.00,meteohub,2013-01-01 20:07:00,
2013-01-01 15:12:00,22.8,14.9,29.26,SSW,203,7.0,7.0,71,0.00,,,0.00,meteohub,2013-01-01 20:12:00,
2013-01-01 15:17:00,22.8,15.1,29.26,SW,225,2.0,9.0,72,0.00,,,0.00,meteohub,2013-01-01 20:17:00,
2013-01-01 15:22:00,22.8,15.4,29.26,WNW,293,6.0,9.0,73,0.00,,,0.00,meteohub,2013-01-01 20:22:00,
2013-01-01 15:27:00,22.6,15.3,29.26,SSW,203,4.0,8.0,73,0.00,,,0.00,meteohub,2013-01-01 20:27:00,
2013-01-01 15:32:00,22.6,15.3,29.26,SE,135,0.0,8.0,73,0.00,,,0.00,meteohub,2013-01-01 20:32:00,
2013-01-01 15:37:00,22.6,15.6,29.26,SW,225,3.0,7.0,74,0.00,,,0.00,meteohub,2013-01-01 20:37:00,
2013-01-01 15:42:00,22.6,15.6,29.26,West,270,3.0,6.0,74,0.00,,,0.00,meteohub,2013-01-01 20:42:00,
2013-01-01 15:47:00,22.8,15.8,29.26,SSE,158,0.0,7.0,74,0.00,,,0.00,meteohub,2013-01-01 20:47:00,
2013-01-01 15:52:00,22.6,15.6,29.26,SW,225,7.0,7.0,74,0.00,,,0.00,meteohub,2013-01-01 20:52:00,
2013-01-01 15:57:00,22.6,15.6,29.26,South,180,7.0,9.0,74,0.00,,,0.00,meteohub,2013-01-01 20:57:00,
2013-01-01 16:02:00,22.5,15.4,29.26,WNW,293,3.0,9.0,74,0.00,,,0.00,meteohub,2013-01-01 21:02:00,
2013-01-01 16:07:00,22.5,15.4,29.26,WSW,248,4.0,9.0,74,0.00,,,0.00,meteohub,2013-01-01 21:07:00,
2013-01-01 16:12:00,22.3,15.3,29.26,SW,225,5.0,9.0,74,0.00,,,0.00,meteohub,2013-01-01 21:12:00,
2013-01-01 16:17:00,22.3,15.3,29.27,WSW,248,4.0,9.0,74,0.00,,,0.00,meteohub,2013-01-01 21:17:00,
2013-01-01 16:22:00,22.3,15.3,29.27,SW,225,4.0,7.0,74,0.00,,,0.00,meteohub,2013-01-01 21:22:00,
2013-01-01 16:27:00,22.3,15.6,29.27,SSW,203,4.0,6.0,75,0.00,,,0.00,meteohub,2013-01-01 21:27:00,
2013-01-01 16:32:00,22.1,15.4,29.27,SSW,203,7.0,7.0,75,0.00,,,0.00,meteohub,2013-01-01 21:32:00,
2013-01-01 16:37:00,22.1,15.4,29.27,SSE,158,5.0,7.0,75,0.00,,,0.00,meteohub,2013-01-01 21:37:00,
2013-01-01 16:42:00,22.1,15.1,29.27,SSW,203,8.0,8.0,74,0.00,,,0.00,meteohub,2013-01-01 21:42:00,
2013-01-01 16:47:00,21.9,15.3,29.27,SW,225,6.0,8.0,75,0.00,,,0.00,meteohub,2013-01-01 21:47:00,
2013-01-01 16:52:00,22.1,15.4,29.27,North,0,4.0,11.0,75,0.00,,,0.00,meteohub,2013-01-01 21:52:00,
2013-01-01 16:57:00,22.1,15.4,29.27,SSE,158,6.0,11.0,75,0.00,,,0.00,meteohub,2013-01-01 21:57:00,
2013-01-01 17:02:00,22.3,15.6,29.27,SW,225,7.0,13.0,75,0.00,,,0.00,meteohub,2013-01-01 22:02:00,
2013-01-01 17:07:00,22.1,15.1,29.27,SW,225,7.0,13.0,74,0.00,,,0.00,meteohub,2013-01-01 22:07:00,
2013-01-01 17:12:00,22.1,15.1,29.27,WSW,248,6.0,12.0,74,0.00,,,0.00,meteohub,2013-01-01 22:12:00,
2013-01-01 17:17:00,22.1,15.1,29.28,SW,225,11.0,11.0,74,0.00,,,0.00,meteohub,2013-01-01 22:17:00,
2013-01-01 17:22:00,22.1,15.1,29.28,SSE,158,11.0,11.0,74,0.00,,,0.00,meteohub,2013-01-01 22:22:00,
2013-01-01 17:27:00,22.1,15.1,29.28,SSE,158,8.0,11.0,74,0.00,,,0.00,meteohub,2013-01-01 22:27:00,
2013-01-01 17:32:00,22.1,15.1,29.28,SSW,203,11.0,11.0,74,0.00,,,0.00,meteohub,2013-01-01 22:32:00,
2013-01-01 17:37:00,22.1,15.1,29.27,SW,225,10.0,12.0,74,0.00,,,0.00,meteohub,2013-01-01 22:37:00,
2013-01-01 17:42:00,22.1,15.1,29.27,SW,225,9.0,12.0,74,0.00,,,0.00,meteohub,2013-01-01 22:42:00,
2013-01-01 17:47:00,22.1,15.1,29.27,SSW,203,6.0,12.0,74,0.00,,,0.00,meteohub,2013-01-01 22:47:00,
2013-01-01 17:52:00,22.1,15.1,29.27,SSW,203,9.0,15.0,74,0.00,,,0.00,meteohub,2013-01-01 22:52:00,
2013-01-01 17:57:00,22.1,15.1,29.26,SW,225,12.0,15.0,74,0.00,,,0.00,meteohub,2013-01-01 22:57:00,
2013-01-01 18:02:00,22.3,15.3,29.26,SSW,203,9.0,12.0,74,0.00,,,0.00,meteohub,2013-01-01 23:02:00,
2013-01-01 18:07:00,22.1,15.1,29.26,SW,225,6.0,12.0,74,0.00,,,0.00,meteohub,2013-01-01 23:07:00,
2013-01-01 18:13:00,22.3,15.3,29.26,WNW,293,4.0,13.0,74,0.00,,,0.00,meteohub,2013-01-01 23:13:00,
2013-01-01 18:18:00,22.1,15.1,29.26,SSW,203,6.0,13.0,74,0.00,,,0.00,meteohub,2013-01-01 23:18:00,
2013-01-01 18:23:00,22.1,15.1,29.26,SSW,203,3.0,13.0,74,0.00,,,0.00,meteohub,2013-01-01 23:23:00,
2013-01-01 18:28:00,22.1,15.1,29.26,SW,225,4.0,7.0,74,0.00,,,0.00,meteohub,2013-01-01 23:28:00,
2013-01-01 18:33:00,21.9,15.3,29.26,SSW,203,6.0,7.0,75,0.00,,,0.00,meteohub,2013-01-01 23:33:00,
2013-01-01 18:38:00,21.9,14.9,29.26,SSE,158,3.0,6.0,74,0.00,,,0.00,meteohub,2013-01-01 23:38:00,
2013-01-01 18:43:00,21.9,14.9,29.26,WSW,248,4.0,17.0,74,0.00,,,0.00,meteohub,2013-01-01 23:43:00,
2013-01-01 18:48:00,21.9,14.9,29.26,SW,225,13.0,17.0,74,0.00,,,0.00,meteohub,2013-01-01 23:48:00,
2013-01-01 18:53:00,21.9,14.9,29.26,SSW,203,7.0,17.0,74,0.00,,,0.00,meteohub,2013-01-01 23:53:00,
2013-01-01 18:58:00,21.9,14.9,29.26,SW,225,5.0,13.0,74,0.00,,,0.00,meteohub,2013-01-01 23:58:00,
2013-01-01 19:03:00,21.9,14.9,29.26,SW,225,8.0,13.0,74,0.00,,,0.00,meteohub,2013-01-02 00:03:00,
2013-01-01 19:08:00,21.9,14.9,29.26,SSW,203,3.0,8.0,74,0.00,,,0.00,meteohub,2013-01-02 00:08:00,
2013-01-01 19:13:00,21.7,15.1,29.26,SW,225,6.0,8.0,75,0.00,,,0.00,meteohub,2013-01-02 00:13:00,
2013-01-01 19:18:00,21.7,15.1,29.25,SSW,203,9.0,9.0,75,0.00,,,0.00,meteohub,2013-01-02 00:18:00,
2013-01-01 19:23:00,21.6,14.9,29.25,SSW,203,4.0,9.0,75,0.00,,,0.00,meteohub,2013-01-02 00:23:00,
2013-01-01 19:28:00,21.6,14.9,29.25,WSW,248,7.0,9.0,75,0.00,,,0.00,meteohub,2013-01-02 00:28:00,
2013-01-01 19:33:00,21.6,14.9,29.26,South,180,6.0,9.0,75,0.00,,,0.00,meteohub,2013-01-02 00:33:00,
2013-01-01 19:38:00,21.6,14.9,29.26,SSW,203,7.0,10.0,75,0.00,,,0.00,meteohub,2013-01-02 00:38:00,
2013-01-01 19:43:00,21.6,14.9,29.26,SW,225,9.0,15.0,75,0.00,,,0.00,meteohub,2013-01-02 00:43:00,
2013-01-01 19:48:00,21.6,14.9,29.26,SW,225,4.0,15.0,75,0.00,,,0.00,meteohub,2013-01-02 00:48:00,
2013-01-01 19:53:00,21.6,14.9,29.26,SW,225,6.0,15.0,75,0.00,,,0.00,meteohub,2013-01-02 00:53:00,
2013-01-01 19:58:00,21.6,14.9,29.26,SSW,203,7.0,14.0,75,0.00,,,0.00,meteohub,2013-01-02 00:58:00,
2013-01-01 20:03:00,21.6,14.9,29.26,SW,225,6.0,13.0,75,0.00,,,0.00,meteohub,2013-01-02 01:03:00,
2013-01-01 20:08:00,21.6,14.9,29.26,SSW,203,8.0,10.0,75,0.00,,,0.00,meteohub,2013-01-02 01:08:00,
2013-01-01 20:13:00,21.6,14.9,29.25,SW,225,7.0,10.0,75,0.00,,,0.00,meteohub,2013-01-02 01:13:00,
2013-01-01 20:18:00,21.6,14.9,29.25,WSW,248,5.0,9.0,75,0.00,,,0.00,meteohub,2013-01-02 01:18:00,
2013-01-01 20:23:00,21.6,14.9,29.25,SW,225,12.0,12.0,75,0.00,,,0.00,meteohub,2013-01-02 01:23:00,
2013-01-01 20:28:00,21.6,14.9,29.25,SSW,203,8.0,12.0,75,0.00,,,0.00,meteohub,2013-01-02 01:28:00,
2013-01-01 20:33:00,21.6,14.9,29.25,SSW,203,13.0,13.0,75,0.00,,,0.00,meteohub,2013-01-02 01:33:00,
2013-01-01 20:38:00,21.6,14.9,29.25,SSE,158,8.0,13.0,75,0.00,,,0.00,meteohub,2013-01-02 01:38:00,
2013-01-01 20:43:00,21.6,14.9,29.25,SW,225,6.0,13.0,75,0.00,,,0.00,meteohub,2013-01-02 01:43:00,
2013-01-01 20:48:00,21.6,14.9,29.25,SSW,203,4.0,13.0,75,0.00,,,0.00,meteohub,2013-01-02 01:48:00,
2013-01-01 20:53:00,21.6,14.9,29.25,SW,225,6.0,11.0,75,0.00,,,0.00,meteohub,2013-01-02 01:53:00,
2013-01-01 20:58:00,21.6,14.9,29.23,SW,225,4.0,13.0,75,0.00,,,0.00,meteohub,2013-01-02 01:58:00,
2013-01-01 21:03:00,21.6,14.9,29.23,SW,225,4.0,13.0,75,0.00,,,0.00,meteohub,2013-01-02 02:03:00,
2013-01-01 21:08:00,21.7,15.1,29.23,SW,225,5.0,13.0,75,0.00,,,0.00,meteohub,2013-01-02 02:08:00,
2013-01-01 21:13:00,21.7,15.1,29.25,SW,225,3.0,11.0,75,0.00,,,0.00,meteohub,2013-01-02 02:13:00,
2013-01-01 21:18:00,21.9,15.3,29.25,SW,225,7.0,11.0,75,0.00,,,0.00,meteohub,2013-01-02 02:18:00,
2013-01-01 21:23:00,21.9,15.3,29.25,South,180,8.0,13.0,75,0.00,,,0.00,meteohub,2013-01-02 02:23:00,
2013-01-01 21:28:00,21.9,15.3,29.25,SSW,203,6.0,13.0,75,0.00,,,0.00,meteohub,2013-01-02 02:28:00,
2013-01-01 21:33:00,21.9,15.3,29.24,ESE,113,3.0,13.0,75,0.00,,,0.00,meteohub,2013-01-02 02:33:00,
2013-01-01 21:38:00,22.1,15.4,29.24,WSW,248,3.0,11.0,75,0.00,,,0.00,meteohub,2013-01-02 02:38:00,
2013-01-01 21:43:00,22.1,15.4,29.24,ESE,113,4.0,11.0,75,0.00,,,0.00,meteohub,2013-01-02 02:43:00,
2013-01-01 21:48:00,22.1,15.1,29.24,SSW,203,6.0,8.0,74,0.00,,,0.00,meteohub,2013-01-02 02:48:00,
2013-01-01 21:53:00,22.3,15.6,29.23,SW,225,6.0,8.0,75,0.00,,,0.00,meteohub,2013-01-02 02:53:00,
2013-01-01 21:59:00,22.3,15.3,29.23,SW,225,6.0,8.0,74,0.00,,,0.00,meteohub,2013-01-02 02:59:00,
2013-01-01 22:04:00,22.3,15.3,29.23,SSW,203,6.0,8.0,74,0.00,,,0.00,meteohub,2013-01-02 03:04:00,
2013-01-01 22:09:00,22.3,15.3,29.23,SW,225,7.0,8.0,74,0.00,,,0.00,meteohub,2013-01-02 03:09:00,
2013-01-01 22:14:00,22.5,15.4,29.23,SSW,203,5.0,8.0,74,0.00,,,0.00,meteohub,2013-01-02 03:14:00,
2013-01-01 22:19:00,22.6,15.6,29.23,SW,225,6.0,9.0,74,0.00,,,0.00,meteohub,2013-01-02 03:19:00,
2013-01-01 22:24:00,22.6,15.6,29.23,SSW,203,5.0,10.0,74,0.00,,,0.00,meteohub,2013-01-02 03:24:00,
2013-01-01 22:29:00,22.6,15.6,29.23,SW,225,6.0,10.0,74,0.00,,,0.00,meteohub,2013-01-02 03:29:00,
2013-01-01 22:34:00,22.6,15.6,29.23,SW,225,6.0,10.0,74,0.00,,,0.00,meteohub,2013-01-02 03:34:00,
2013-01-01 22:39:00,22.6,15.6,29.23,SSE,158,2.0,10.0,74,0.00,,,0.00,meteohub,2013-01-02 03:39:00,
2013-01-01 22:44:00,22.6,15.6,29.23,SW,225,7.0,8.0,74,0.00,,,0.00,meteohub,2013-01-02 03:44:00,
2013-01-01 22:49:00,22.6,15.3,29.23,SSW,203,3.0,7.0,73,0.00,,,0.00,meteohub,2013-01-02 03:49:00,
2013-01-01 22:54:00,22.8,15.4,29.24,SW,225,4.0,7.0,73,0.00,,,0.00,meteohub,2013-01-02 03:54:00,
2013-01-01 22:59:00,22.8,15.8,29.24,SW,225,3.0,7.0,74,0.00,,,0.00,meteohub,2013-01-02 03:59:00,
2013-01-01 23:04:00,22.6,15.6,29.24,SSW,203,3.0,7.0,74,0.00,,,0.00,meteohub,2013-01-02 04:04:00,
2013-01-01 23:09:00,22.6,15.3,29.24,SW,225,7.0,7.0,73,0.00,,,0.00,meteohub,2013-01-02 04:09:00,
2013-01-01 23:14:00,22.6,15.6,29.23,SW,225,6.0,6.0,74,0.00,,,0.00,meteohub,2013-01-02 04:14:00,
2013-01-01 23:19:00,22.8,15.4,29.23,South,180,7.0,12.0,73,0.00,,,0.00,meteohub,2013-01-02 04:19:00,
2013-01-01 23:24:00,22.8,15.4,29.23,SW,225,4.0,12.0,73,0.00,,,0.00,meteohub,2013-01-02 04:24:00,
2013-01-01 23:29:00,22.6,15.3,29.23,SW,225,2.0,7.0,73,0.00,,,0.00,meteohub,2013-01-02 04:29:00,
2013-01-01 23:34:00,22.6,15.3,29.23,SW,225,2.0,7.0,73,0.00,,,0.00,meteohub,2013-01-02 04:34:00,
2013-01-01 23:39:00,22.6,15.3,29.23,SW,225,2.0,5.0,73,0.00,,,0.00,meteohub,2013-01-02 04:39:00,
2013-01-01 23:44:00,22.6,15.3,29.23,SE,135,4.0,4.0,73,0.00,,,0.00,meteohub,2013-01-02 04:44:00,
2013-01-01 23:49:00,22.6,15.3,29.23,SE,135,4.0,4.0,73,0.00,,,0.00,meteohub,2013-01-02 04:49:00,
2013-01-01 23:54:00,22.6,14.9,29.23,WNW,293,5.0,5.0,72,0.00,,,0.00,meteohub,2013-01-02 04:54:00,
2013-01-01 23:59:00,22.8,15.1,29.23,SW,225,11.0,11.0,72,0.00,,,0.00,meteohub,2013-01-02 04:59:00,